Showing default

HULIANWANG DIGUI-73, 65305

Orbit data source: Space-Track

HULIANWANG DIGUI-73, 65305 is a payload satellite owned by Zhongguo Xingwang (CN) in LEO that was launched on Mon, 25 Aug 2025 UTC via a CHANG ZHENG 8A launch vehicle from the Wenchang Satellite Launch Center (WSC). Payload-class satellites include a variety of spacecraft equipped with specific instruments for various scientific and technological missions. These include communications satellites like Starlink; space stations such as the ISS; scientific satellites like the Hubble; Earth observation satellites from companies like Planet Labs, Umbra, and HawkEye 360; GPS; miniature CubeSats for education and research; and military/defense satellites.

Loading next visibility...
Identifier
65305, 2025-187A
Orbit
LEO
Country
Flag of CNCN / PRC
Related business
Manufacturer
SECM
Mission
Operational Civil Communications
Bus & Motor
XINGWANG S, Unknown motor
Mass
~800 kg wet, ~800 kg dry
Launch date (UTC)
2025-08-25 (10 months ago)
Launch vehicle
CHANG ZHENG 8A
Launch site
Wenchang Satellite Launch Center (WSC)
Object type
Payload
Rocket body
Debris
Shape & HBR
Box + 2 Pan, 1.1 m
Radar Cross Section
5.935 m², Large (>1 m²)

Expand to show TLE details & history
Last TLE update: 10 hours ago

TLE from 10 hours ago
0 HULIANWANG DIGUI-73
1 65305U 25187A   26171.44520208 -.00000106  00000-0  39134-4 0  9996
2 65305  50.0029 194.1954 0000404 210.3464 149.7385 13.29324377 40134
Epoch: 2026-06-20T10:41Z
TLE epoch observation values (Epoch: 2026-06-20T10:41:05.459Z)
Latitude
-0.00001°
Longitude
125.26292°
Altitude
1,150.082 km
Speed
7.279 km/s
True Right ascension
12h 56m 46s
True Declination
0° 00' 00"
Sunlit
Object was in daylight at epoch
Visualization orbit readout
Latitude
Unknown
Longitude
Unknown
Altitude
Unknown
Speed
Unknown
Apparent Right ascension
Unknown
Apparent Declination
Unknown
Sunlit
N/A
Visualization observer readout
Local Sidereal Time
07:21:49
Azimuth
Unknown
Elevation
Unknown
Doppler factor
Unknown
Orbital elements
Apogee altitude
1,150.322 km
Perigee altitude
1,149.714 km
Semi-major axis
7,528.155 km
Eccentricity
0.00004
Inclination
50.0029°
RAAN
194.1954°
Arg. of periapsis
210.3464°
True anomaly
149.74083°
Mean anomaly
149.7385°
Eccentric anomaly
149.73967°
Mean motion
3.32285 °/min
Orbital period
108.34 mins
BSTAR
0.000039134
Loading maneuver chart data...
Computing Atmospheric mass density...
Loading historical data...
Loading historical data...
Loading historical data...
Loading historical data...
Loading historical data...
Loading historical data...
Loading historical data...

Documentation

Showing up to 5 results
|